• In Czech Republic
  • List of Countries
  • For 7 days
  • Water Temperature
  • Satellite Maps
  • Weather Map
  • Weather Widgets
  • user-avatar
    Login

    Hourly Weather Gjirokaster

    Today, 24 November, Friday

    Time Temperature Precipitation Wind Pressure Humidity
    00:00 +3°C° 0 mm 1 mps 653 mmHg 72%
    01:00 +3°C° 0 mm 1 mps 653 mmHg 72%
    02:00 +3°C° 0 mm 1 mps 653 mmHg 71%
    03:00 +2°C° 0 mm 1 mps 653 mmHg 71%
    04:00 +2°C° 0 mm 1 mps 653 mmHg 70%
    05:00 +2°C° 0 mm 1 mps 653 mmHg 70%
    06:00 +2°C° 0 mm 1 mps 653 mmHg 70%
    07:00 +2°C° 0 mm 1 mps 653 mmHg 69%
    08:00 +4°C° 0 mm 1 mps 653 mmHg 64%
    09:00 +6°C° 0 mm 1 mps 654 mmHg 59%
    10:00 +8°C° 0 mm 1 mps 654 mmHg 54%
    11:00 +9°C° 0 mm 1 mps 654 mmHg 54%
    12:00 +9°C° 0 mm 1 mps 654 mmHg 55%
    13:00 +9°C° 0 mm 2 mps 654 mmHg 55%
    14:00 +7°C° 0 mm 2 mps 654 mmHg 61%
    15:00 +6°C° 0 mm 2 mps 654 mmHg 67%
    16:00 +5°C° 0 mm 2 mps 653 mmHg 73%
    17:00 +4°C° 0 mm 2 mps 653 mmHg 76%
    18:00 +4°C° 0 mm 2 mps 653 mmHg 79%
    19:00 +4°C° 0 mm 1 mps 653 mmHg 82%
    20:00 +4°C° 0 mm 1 mps 653 mmHg 82%
    21:00 +3°C° 0 mm 1 mps 653 mmHg 82%
    22:00 +3°C° 0 mm 1 mps 653 mmHg 82%
    23:00 +3°C° 0 mm 1 mps 653 mmHg 82%

    Tomorrow, 25 November, Saturday

    Time Temperature Precipitation Wind Pressure Humidity
    00:00 +3°C° 0 mm 1 mps 653 mmHg 81%
    01:00 +2°C° 0 mm 1 mps 653 mmHg 80%
    02:00 +2°C° 0 mm 1 mps 653 mmHg 80%
    03:00 +2°C° 0 mm 1 mps 653 mmHg 79%
    04:00 +2°C° 0 mm 1 mps 652 mmHg 79%
    05:00 +2°C° 0 mm 1 mps 652 mmHg 78%
    06:00 +2°C° 0 mm 1 mps 652 mmHg 78%
    07:00 +2°C° 0 mm 1 mps 652 mmHg 77%
    08:00 +4°C° 0 mm 1 mps 653 mmHg 71%
    09:00 +6°C° 0 mm 1 mps 653 mmHg 64%
    10:00 +7°C° 0 mm 1 mps 654 mmHg 57%
    11:00 +8°C° 0 mm 1 mps 653 mmHg 56%
    12:00 +8°C° 0 mm 1 mps 653 mmHg 54%
    13:00 +9°C° 0 mm 1 mps 653 mmHg 52%
    14:00 +8°C° 0 mm 1 mps 653 mmHg 59%
    15:00 +7°C° 0 mm 1 mps 652 mmHg 65%
    16:00 +6°C° 0 mm 1 mps 652 mmHg 71%
    17:00 +5°C° 0 mm 1 mps 652 mmHg 75%
    18:00 +4°C° 0 mm 1 mps 652 mmHg 80%
    19:00 +3°C° 0 mm 1 mps 652 mmHg 84%
    20:00 +3°C° 0 mm 1 mps 652 mmHg 85%
    21:00 +2°C° 0 mm 2 mps 652 mmHg 87%
    22:00 +2°C° 0 mm 2 mps 652 mmHg 88%
    23:00 +1°C° 0 mm 2 mps 652 mmHg 88%

    Day after tomorrow, 26 November, Sunday

    Time Temperature Precipitation Wind Pressure Humidity
    00:00 +1°C° 0 mm 2 mps 651 mmHg 88%
    01:00 0°C° 0 mm 3 mps 651 mmHg 88%
    02:00 0°C° 0 mm 3 mps 651 mmHg 87%
    03:00 0°C° 0 mm 3 mps 651 mmHg 86%
    04:00 0°C° 0 mm 3 mps 651 mmHg 85%
    05:00 0°C° 0 mm 3 mps 651 mmHg 85%
    06:00 0°C° 0 mm 3 mps 651 mmHg 84%
    07:00 -1°C° 0 mm 4 mps 651 mmHg 84%
    08:00 +1°C° 0 mm 4 mps 651 mmHg 81%
    09:00 +4°C° 0 mm 4 mps 651 mmHg 78%
    10:00 +5°C° 0 mm 4 mps 652 mmHg 75%
    11:00 +6°C° 0 mm 5 mps 651 mmHg 75%
    12:00 +6°C° 0 mm 5 mps 651 mmHg 75%
    13:00 +7°C° 0 mm 5 mps 650 mmHg 75%
    14:00 +6°C° 0.1 mm 5 mps 650 mmHg 79%
    15:00 +5°C° 0.1 mm 5 mps 650 mmHg 84%
    16:00 +5°C° 0.1 mm 5 mps 649 mmHg 88%
    17:00 +3°C° 0.7 mm 5 mps 649 mmHg 89%
    18:00 +4°C° 0.7 mm 4 mps 649 mmHg 91%
    19:00 +4°C° 0.7 mm 4 mps 649 mmHg 92%
    20:00 +3°C° 2.4 mm 4 mps 648 mmHg 92%
    21:00 +3°C° 2.4 mm 4 mps 648 mmHg 92%
    22:00 +3°C° 2.4 mm 4 mps 648 mmHg 93%
    23:00 +3°C° 1.1 mm 3 mps 648 mmHg 92%

    27 November, Monday

    Time Temperature Precipitation Wind Pressure Humidity
    00:00 +3°C° 1.1 mm 3 mps 647 mmHg 92%
    01:00 +3°C° 1.1 mm 3 mps 647 mmHg 92%
    02:00 +3°C° 0.4 mm 3 mps 647 mmHg 91%
    03:00 +2°C° 0.4 mm 3 mps 646 mmHg 89%
    04:00 +3°C° 0.4 mm 2 mps 646 mmHg 88%
    05:00 +3°C° 0.1 mm 2 mps 646 mmHg 88%
    06:00 +2°C° 0.1 mm 2 mps 646 mmHg 87%
    07:00 +2°C° 0.1 mm 2 mps 645 mmHg 87%
    08:00 +2°C° 0 mm 2 mps 646 mmHg 82%
    09:00 +3°C° 0 mm 2 mps 646 mmHg 78%
    10:00 +4°C° 0 mm 2 mps 647 mmHg 73%
    11:00 +4°C° 0.1 mm 2 mps 647 mmHg 71%
    12:00 +5°C° 0.1 mm 2 mps 647 mmHg 68%
    13:00 +4°C° 0.1 mm 3 mps 647 mmHg 66%
    14:00 +4°C° 0.1 mm 3 mps 647 mmHg 70%
    15:00 +3°C° 0.1 mm 4 mps 647 mmHg 73%
    16:00 +1°C° 0.1 mm 5 mps 647 mmHg 77%
    17:00 +1°C° 0 mm 5 mps 647 mmHg 80%
    18:00 0°C° 0 mm 5 mps 647 mmHg 82%
    19:00 -1°C° 0 mm 4 mps 648 mmHg 84%
    20:00 -1°C° 0 mm 4 mps 648 mmHg 84%
    21:00 -2°C° 0 mm 4 mps 648 mmHg 83%
    22:00 -2°C° 0 mm 4 mps 648 mmHg 83%
    23:00 -2°C° 0 mm 4 mps 648 mmHg 83%

    28 November, Tuesday

    Time Temperature Precipitation Wind Pressure Humidity
    00:00 -3°C° 0 mm 4 mps 648 mmHg 82%
    01:00 -2°C° 0 mm 3 mps 648 mmHg 82%
    02:00 -2°C° 0 mm 3 mps 648 mmHg 82%
    03:00 -4°C° 0 mm 3 mps 648 mmHg 82%
    04:00 -4°C° 0 mm 3 mps 648 mmHg 82%
    05:00 -4°C° 0 mm 3 mps 648 mmHg 81%
    06:00 -4°C° 0 mm 3 mps 648 mmHg 81%
    07:00 -4°C° 0 mm 3 mps 648 mmHg 81%
    08:00 -2°C° 0 mm 3 mps 649 mmHg 74%
    09:00 -1°C° 0 mm 3 mps 649 mmHg 66%
    10:00 +1°C° 0 mm 3 mps 649 mmHg 59%
    11:00 0°C° 0 mm 4 mps 649 mmHg 57%
    12:00 +1°C° 0 mm 4 mps 649 mmHg 56%
    13:00 +1°C° 0 mm 4 mps 649 mmHg 54%
    14:00 0°C° 0 mm 4 mps 649 mmHg 59%
    15:00 -1°C° 0 mm 4 mps 649 mmHg 63%
    16:00 -1°C° 0 mm 4 mps 649 mmHg 68%
    17:00 -1°C° 0 mm 3 mps 649 mmHg 71%
    18:00 -2°C° 0 mm 3 mps 649 mmHg 73%
    19:00 -4°C° 0 mm 3 mps 649 mmHg 76%
    20:00 -4°C° 0 mm 3 mps 649 mmHg 76%
    21:00 -4°C° 0 mm 3 mps 649 mmHg 76%
    22:00 -4°C° 0 mm 2 mps 649 mmHg 77%
    23:00 -4°C° 0 mm 2 mps 649 mmHg 76%

    29 November, Wednesday

    Time Temperature Precipitation Wind Pressure Humidity
    00:00 -4°C° 0 mm 2 mps 649 mmHg 76%
    01:00 -4°C° 0 mm 2 mps 649 mmHg 75%
    02:00 -4°C° 0 mm 2 mps 649 mmHg 75%
    03:00 -4°C° 0 mm 2 mps 649 mmHg 74%
    04:00 -4°C° 0 mm 2 mps 649 mmHg 74%
    05:00 -4°C° 0 mm 2 mps 649 mmHg 72%
    06:00 -2°C° 0 mm 1 mps 650 mmHg 71%
    07:00 -2°C° 0 mm 1 mps 650 mmHg 70%
    08:00 0°C° 0 mm 1 mps 650 mmHg 62%
    09:00 +1°C° 0 mm 1 mps 651 mmHg 54%
    10:00 +3°C° 0 mm 1 mps 651 mmHg 46%
    11:00 +4°C° 0 mm 1 mps 651 mmHg 46%
    12:00 +4°C° 0 mm 1 mps 651 mmHg 46%
    13:00 +5°C° 0 mm 1 mps 651 mmHg 45%
    14:00 +4°C° 0 mm 1 mps 651 mmHg 52%
    15:00 +3°C° 0 mm 1 mps 651 mmHg 59%
    16:00 +2°C° 0 mm 1 mps 651 mmHg 65%
    17:00 +1°C° 0 mm 1 mps 651 mmHg 69%
    18:00 -2°C° 0 mm 2 mps 651 mmHg 72%
    19:00 -2°C° 0 mm 2 mps 651 mmHg 76%
    20:00 -4°C° 0 mm 3 mps 651 mmHg 77%
    21:00 -4°C° 0 mm 3 mps 651 mmHg 78%
    22:00 -4°C° 0 mm 3 mps 651 mmHg 80%
    23:00 -4°C° 0 mm 4 mps 651 mmHg 79%
    Show more